This is the latest recevied weather packets stored in our database for station/object KG5MMT-12. If no packets are shown the sender has not sent any weather packets the latest 10 day(s).
| Time | Temp. | Humidity | Pressure | Rain* | Wind** | Luminosity | Snow |
|---|---|---|---|---|---|---|---|
| 1787864059 | 18.33° C | 88% | 0 hPa | 0 mm | - | - | - |
| 1787863759 | 18.33° C | 89% | 0 hPa | 0 mm | - | - | - |
| 1787863459 | 17.78° C | 87% | 0 hPa | 0 mm | - | - | - |
| 1787863159 | 17.78° C | 83% | 0 hPa | 0 mm | - | - | - |
| 1787862559 | 17.78° C | 87% | 0 hPa | 0.25 mm | - | - | - |
| 1787862259 | 17.78° C | 91% | 0 hPa | 0.25 mm | - | - | - |
| 1787861959 | 17.22° C | 92% | 0 hPa | 0.25 mm | - | - | - |
| 1787861660 | 16.67° C | 92% | 0 hPa | 0.25 mm | - | - | - |
| 1787861360 | 16.67° C | 91% | 0 hPa | 0.25 mm | - | - | - |
| 1787861059 | 16.67° C | 91% | 0 hPa | 0.76 mm | - | - | - |
| 1787860759 | 16.11° C | 91% | 0 hPa | 2.29 mm | - | - | - |
| 1787860459 | 16.11° C | 91% | 0 hPa | 2.54 mm | - | - | - |
| 1787860159 | 16.11° C | 92% | 0 hPa | 2.54 mm | - | - | - |
| 1787859860 | 16.11° C | 92% | 0 hPa | 2.54 mm | - | - | - |
| 1787859560 | 15.56° C | 92% | 0 hPa | 2.54 mm | - | - | - |
| 1787859259 | 15.56° C | 92% | 0 hPa | 2.54 mm | - | - | - |
| 1787858960 | 15.56° C | 90% | 0 hPa | 2.29 mm | - | - | - |
| 1787858659 | 15.56° C | 89% | 0 hPa | 2.29 mm | - | - | - |
| 1787858359 | 16.11° C | 85% | 0 hPa | 2.29 mm | - | - | - |
| 1787858060 | 17.22° C | 80% | 0 hPa | 2.29 mm | - | - | - |
| 1787857760 | 18.33° C | 73% | 0 hPa | 2.29 mm | - | - | - |
| 1787857460 | 20.56° C | 68% | 0 hPa | 1.52 mm | - | - | - |
| 1787857159 | 22.78° C | 57% | 0 hPa | 0.25 mm | - | - | - |
| 1787856859 | 23.89° C | 50% | 0 hPa | 0 mm | - | - | - |
| 1787856560 | 24.44° C | 50% | 0 hPa | 0 mm | - | - | - |
* Rain latest hour (hover to see other rain measurements)
** Current wind speed in m/s (hover to see current wind gust speed)